EWG85Z LDZA-EDDK

Flight info

Callsign EWG85Z
Flight time 1h 26m
Altitude 36000
Route OBUTI DCT GOLVA DCT NEMAL DCT SIMBA DCT AKINI/N0383F240 Z109 UPALA L610 KOMIB L984 ASKIK T840 GULKO GULKO1F
Aircraft A319/M-SDE3FGHIRWY/LB1

Departure

Time 2026-04-21 19:25
Airport Zagreb Franjo Tuđman International Airport (LDZA)

Arrival

Time 2026-04-21 20:51
Airport Cologne Bonn Airport (EDDK)
Time Latitude Longitude Altitude Speed Heading
2026-04-21 18:49 45.74211 16.07867 361 ft 0 kts 138°
2026-04-21 19:13 45.74215 16.07862 366 ft 4 kts 137°
2026-04-21 19:13 45.74234 16.07836 363 ft 4 kts 139°
2026-04-21 19:13 45.74256 16.07814 364 ft 4 kts 156°
2026-04-21 19:13 45.74280 16.07806 362 ft 4 kts 198°
2026-04-21 19:14 45.74293 16.07816 357 ft 1 kts 226°
2026-04-21 19:14 45.74294 16.07818 357 ft 1 kts 226°
2026-04-21 19:17 45.74287 16.07806 362 ft 4 kts 227°
2026-04-21 19:17 45.74262 16.07768 360 ft 7 kts 227°
2026-04-21 19:17 45.74235 16.07726 360 ft 8 kts 227°
2026-04-21 19:18 45.74171 16.07628 361 ft 15 kts 226°
2026-04-21 19:18 45.74098 16.07519 355 ft 15 kts 227°
2026-04-21 19:18 45.74061 16.07419 354 ft 10 kts 286°
2026-04-21 19:18 45.74110 16.07345 354 ft 10 kts 318°
2026-04-21 19:19 45.74157 16.07286 359 ft 8 kts 317°
2026-04-21 19:19 45.74191 16.07238 356 ft 6 kts 317°
2026-04-21 19:19 45.74218 16.07184 357 ft 8 kts 286°
2026-04-21 19:19 45.74187 16.07108 361 ft 11 kts 226°
2026-04-21 19:20 45.74132 16.07021 357 ft 12 kts 228°
2026-04-21 19:20 45.74070 16.06923 358 ft 14 kts 226°
2026-04-21 19:20 45.74005 16.06829 355 ft 12 kts 225°
2026-04-21 19:20 45.73948 16.06744 354 ft 12 kts 227°
2026-04-21 19:21 45.73888 16.06653 358 ft 13 kts 226°
2026-04-21 19:21 45.73832 16.06567 357 ft 11 kts 226°
2026-04-21 19:21 45.73778 16.06487 361 ft 13 kts 226°
2026-04-21 19:21 45.73701 16.06371 362 ft 18 kts 226°
2026-04-21 19:22 45.73608 16.06230 361 ft 21 kts 226°
2026-04-21 19:22 45.73497 16.06062 357 ft 21 kts 227°
2026-04-21 19:22 45.73406 16.05919 354 ft 21 kts 226°
2026-04-21 19:22 45.73307 16.05774 360 ft 14 kts 230°
2026-04-21 19:23 45.73298 16.05683 360 ft 11 kts 314°
2026-04-21 19:23 45.73358 16.05611 361 ft 12 kts 319°
2026-04-21 19:23 45.73418 16.05553 360 ft 8 kts
2026-04-21 19:23 45.73441 16.05582 365 ft 0 kts 49°
2026-04-21 19:24 45.73519 16.05703 358 ft 50 kts 47°
2026-04-21 19:24 45.73916 16.06304 362 ft 114 kts 47°
2026-04-21 19:24 45.74567 16.07280 577 ft 145 kts 45°
2026-04-21 19:25 45.75257 16.08323 1227 ft 144 kts 46°
2026-04-21 19:25 45.75945 16.09375 1815 ft 152 kts 45°
2026-04-21 19:25 45.76724 16.10549 2192 ft 173 kts 45°
2026-04-21 19:25 45.77598 16.11881 2587 ft 194 kts 46°
2026-04-21 19:26 45.78589 16.13401 3002 ft 221 kts 46°
2026-04-21 19:26 45.79691 16.15083 3675 ft 242 kts 46°
2026-04-21 19:26 45.80887 16.16911 4473 ft 256 kts 47°
2026-04-21 19:26 45.82065 16.18744 5828 ft 248 kts 47°
2026-04-21 19:27 45.83244 16.20588 6856 ft 255 kts 46°
2026-04-21 19:27 45.84480 16.22459 7791 ft 261 kts 45°
2026-04-21 19:27 45.85751 16.24358 8766 ft 266 kts 45°
2026-04-21 19:27 45.87039 16.26292 9765 ft 271 kts 45°
2026-04-21 19:28 45.88348 16.28293 10589 ft 280 kts 45°
2026-04-21 19:28 45.89697 16.30416 11220 ft 295 kts 48°
2026-04-21 19:28 45.90941 16.32800 12041 ft 301 kts 51°
2026-04-21 19:28 45.92221 16.35219 12876 ft 306 kts 47°
2026-04-21 19:29 45.93820 16.37243 13689 ft 308 kts 30°
2026-04-21 19:29 45.95765 16.38524 14443 ft 309 kts 13°
2026-04-21 19:29 45.97941 16.39004 14765 ft 326 kts 358°
2026-04-21 19:29 46.00206 16.38545 15315 ft 333 kts 346°
2026-04-21 19:30 46.02475 16.37823 16075 ft 335 kts 346°
2026-04-21 19:30 46.04773 16.37141 16831 ft 339 kts 347°
2026-04-21 19:30 46.07069 16.36482 17568 ft 343 kts 347°
2026-04-21 19:30 46.09421 16.35810 18321 ft 346 kts 347°
2026-04-21 19:31 46.11798 16.35125 18971 ft 350 kts 347°
2026-04-21 19:31 46.14196 16.34426 19629 ft 353 kts 346°
2026-04-21 19:31 46.16620 16.33715 20283 ft 357 kts 346°
2026-04-21 19:31 46.19066 16.32997 20934 ft 360 kts 346°
2026-04-21 19:32 46.21530 16.32265 21586 ft 364 kts 346°
2026-04-21 19:32 46.24026 16.31520 22203 ft 368 kts 346°
2026-04-21 19:32 46.26542 16.30767 22822 ft 371 kts 346°
2026-04-21 19:32 46.29082 16.30009 23448 ft 375 kts 346°
2026-04-21 19:33 46.30780 16.29502 23830 ft 377 kts 346°
2026-04-21 19:33 46.34216 16.28371 24510 ft 379 kts 339°
2026-04-21 19:33 46.36637 16.26888 25023 ft 378 kts 329°
2026-04-21 19:33 46.38814 16.24766 25543 ft 378 kts 318°
2026-04-21 19:34 46.40681 16.22093 26067 ft 377 kts 308°
2026-04-21 19:34 46.42304 16.19096 26596 ft 379 kts 307°
2026-04-21 19:34 46.43922 16.16078 27121 ft 380 kts 306°
2026-04-21 19:34 46.45553 16.13032 27614 ft 383 kts 307°
2026-04-21 19:35 46.47192 16.09965 28077 ft 386 kts 307°
2026-04-21 19:35 46.50480 16.03797 29051 ft 391 kts 306°
2026-04-21 19:35 46.52151 16.00657 29526 ft 394 kts 306°
2026-04-21 19:36 46.53830 15.97501 29995 ft 396 kts 306°
2026-04-21 19:36 46.55522 15.94320 30396 ft 399 kts 306°
2026-04-21 19:36 46.57228 15.91116 30764 ft 401 kts 306°
2026-04-21 19:36 46.58940 15.87891 31105 ft 404 kts 306°
2026-04-21 19:37 46.60658 15.84643 31430 ft 406 kts 306°
2026-04-21 19:37 46.62384 15.81373 31754 ft 409 kts 306°
2026-04-21 19:37 46.64120 15.78081 32091 ft 411 kts 306°
2026-04-21 19:37 46.65859 15.74785 32540 ft 410 kts 306°
2026-04-21 19:38 46.67593 15.71499 32988 ft 409 kts 306°
2026-04-21 19:38 46.69324 15.68212 33433 ft 409 kts 306°
2026-04-21 19:38 46.70470 15.66032 33732 ft 408 kts 306°
2026-04-21 19:38 46.72824 15.61688 34316 ft 408 kts 308°
2026-04-21 19:39 46.74633 15.58555 34601 ft 410 kts 309°
2026-04-21 19:39 46.76508 15.55402 34893 ft 412 kts 310°
2026-04-21 19:39 46.78396 15.52250 35212 ft 412 kts 310°
2026-04-21 19:39 46.80277 15.49090 35529 ft 413 kts 309°
2026-04-21 19:40 46.82149 15.45910 35847 ft 413 kts 309°
2026-04-21 19:40 46.84016 15.42708 36100 ft 415 kts 309°
2026-04-21 19:40 46.85874 15.39501 36159 ft 412 kts 309°
2026-04-21 19:41 46.89542 15.33118 36163 ft 409 kts 309°
2026-04-21 19:41 46.93199 15.26755 36161 ft 409 kts 309°
2026-04-21 19:42 46.96864 15.20380 36162 ft 409 kts 309°
2026-04-21 19:42 47.00529 15.13990 36180 ft 410 kts 309°
2026-04-21 19:43 47.04197 15.07592 36159 ft 410 kts 309°
2026-04-21 19:43 47.07833 15.01226 36149 ft 410 kts 309°
2026-04-21 19:44 47.11494 14.94799 36127 ft 410 kts 309°
2026-04-21 19:44 47.15144 14.88364 36135 ft 410 kts 309°
2026-04-21 19:45 47.18792 14.81936 36138 ft 409 kts 309°
2026-04-21 19:45 47.22436 14.75506 36135 ft 409 kts 309°
2026-04-21 19:46 47.26070 14.69060 36133 ft 409 kts 309°
2026-04-21 19:46 47.29697 14.62610 36131 ft 409 kts 309°
2026-04-21 19:47 47.33332 14.56144 36132 ft 410 kts 309°
2026-04-21 19:47 47.36970 14.49651 36139 ft 411 kts 309°
2026-04-21 19:48 47.40611 14.43136 36158 ft 411 kts 309°
2026-04-21 19:48 47.44228 14.36648 36171 ft 412 kts 309°
2026-04-21 19:49 47.47865 14.30105 36174 ft 412 kts 309°
2026-04-21 19:49 47.50913 14.24623 36188 ft 411 kts 309°
2026-04-21 19:50 47.54512 14.18123 36193 ft 411 kts 309°
2026-04-21 19:50 47.58132 14.11576 36195 ft 411 kts 309°
2026-04-21 19:51 47.61756 14.05013 36194 ft 412 kts 309°
2026-04-21 19:51 47.65374 13.98418 36191 ft 412 kts 309°
2026-04-21 19:52 47.68992 13.91812 36185 ft 413 kts 309°
2026-04-21 19:52 47.72616 13.85188 36196 ft 413 kts 309°
2026-04-21 19:53 47.76213 13.78611 36201 ft 413 kts 308°
2026-04-21 19:53 47.79826 13.71980 36201 ft 412 kts 308°
2026-04-21 19:54 47.83433 13.65341 36205 ft 413 kts 308°
2026-04-21 19:54 47.87036 13.58683 36204 ft 413 kts 309°
2026-04-21 19:55 47.90643 13.51993 36203 ft 414 kts 309°
2026-04-21 19:55 47.94541 13.45660 36206 ft 415 kts 314°
2026-04-21 19:56 47.98571 13.39490 36212 ft 415 kts 314°
2026-04-21 19:56 48.02594 13.33289 36212 ft 415 kts 314°
2026-04-21 19:57 48.06612 13.27078 36204 ft 415 kts 314°
2026-04-21 19:57 48.10596 13.20908 36206 ft 415 kts 314°
2026-04-21 19:58 48.14602 13.14700 36209 ft 415 kts 314°
2026-04-21 19:58 48.18604 13.08489 36212 ft 414 kts 313°
2026-04-21 19:59 48.22600 13.02247 36212 ft 414 kts 313°
2026-04-21 19:59 48.26507 12.95892 36213 ft 414 kts 311°
2026-04-21 20:00 48.30304 12.89374 36205 ft 414 kts 311°
2026-04-21 20:00 48.34089 12.82849 36212 ft 414 kts 311°
2026-04-21 20:01 48.37899 12.76353 36224 ft 414 kts 311°
2026-04-21 20:01 48.41720 12.69845 36215 ft 415 kts 311°
2026-04-21 20:02 48.45538 12.63317 36212 ft 415 kts 311°
2026-04-21 20:02 48.49360 12.56771 36211 ft 416 kts 311°
2026-04-21 20:03 48.53177 12.50221 36210 ft 416 kts 311°
2026-04-21 20:03 48.56990 12.43645 36211 ft 416 kts 311°
2026-04-21 20:04 48.60781 12.37095 36216 ft 416 kts 311°
2026-04-21 20:04 48.64591 12.30500 36233 ft 416 kts 311°
2026-04-21 20:05 48.68404 12.23883 36207 ft 417 kts 311°
2026-04-21 20:05 48.72215 12.17245 36211 ft 418 kts 311°
2026-04-21 20:06 48.76023 12.10573 36211 ft 418 kts 310°
2026-04-21 20:06 48.79663 12.03690 36214 ft 419 kts 308°
2026-04-21 20:07 48.83222 11.96695 36211 ft 419 kts 308°
2026-04-21 20:07 48.86803 11.89717 36213 ft 419 kts 309°
2026-04-21 20:08 48.90406 11.82776 36204 ft 418 kts 309°
2026-04-21 20:08 48.94021 11.75837 36216 ft 418 kts 309°
2026-04-21 20:09 48.97587 11.68917 36219 ft 419 kts 309°
2026-04-21 20:09 49.01171 11.61920 36217 ft 419 kts 309°
2026-04-21 20:10 49.04489 11.54563 36216 ft 420 kts 299°
2026-04-21 20:10 49.07216 11.46726 36207 ft 421 kts 299°
2026-04-21 20:11 49.09947 11.38825 36209 ft 421 kts 299°
2026-04-21 20:11 49.12677 11.30919 36223 ft 422 kts 299°
2026-04-21 20:11 49.14053 11.26936 36348 ft 426 kts 299°
2026-04-21 20:12 49.15437 11.22919 36577 ft 428 kts 299°
2026-04-21 20:12 49.16823 11.18884 36869 ft 428 kts 299°
2026-04-21 20:12 49.18195 11.14896 37181 ft 428 kts 299°
2026-04-21 20:12 49.19588 11.10884 37500 ft 428 kts 299°
2026-04-21 20:13 49.20988 11.06872 37843 ft 427 kts 299°
2026-04-21 20:13 49.22386 11.02869 38165 ft 427 kts 299°
2026-04-21 20:13 49.23787 10.98850 38240 ft 428 kts 299°
2026-04-21 20:14 49.26587 10.90794 38241 ft 428 kts 299°
2026-04-21 20:14 49.29377 10.82720 38242 ft 428 kts 299°
2026-04-21 20:15 49.32162 10.74639 38240 ft 429 kts 299°
2026-04-21 20:15 49.34936 10.66551 38236 ft 428 kts 299°
2026-04-21 20:16 49.37696 10.58514 38240 ft 429 kts 299°
2026-04-21 20:16 49.40459 10.50407 38252 ft 429 kts 299°
2026-04-21 20:17 49.43222 10.42295 38257 ft 428 kts 299°
2026-04-21 20:17 49.45977 10.34178 38255 ft 428 kts 299°
2026-04-21 20:18 49.48278 10.27367 38232 ft 428 kts 299°
2026-04-21 20:18 49.51463 10.17929 38226 ft 428 kts 299°
2026-04-21 20:19 49.54189 10.09794 38227 ft 428 kts 298°
2026-04-21 20:19 49.56915 10.01641 38218 ft 428 kts 298°
2026-04-21 20:20 49.59642 9.93474 38218 ft 429 kts 298°
2026-04-21 20:20 49.62367 9.85275 38205 ft 429 kts 298°
2026-04-21 20:21 49.65087 9.77071 38217 ft 429 kts 298°
2026-04-21 20:21 49.67782 9.68921 38226 ft 429 kts 298°
2026-04-21 20:22 49.70491 9.60702 38228 ft 429 kts 298°
2026-04-21 20:22 49.74538 9.48360 38226 ft 429 kts 298°
2026-04-21 20:23 49.77232 9.40120 38245 ft 429 kts 298°
2026-04-21 20:23 49.79916 9.31880 38247 ft 428 kts 298°
2026-04-21 20:24 49.82590 9.23638 38247 ft 428 kts 298°
2026-04-21 20:24 49.85252 9.15391 38226 ft 429 kts 298°
2026-04-21 20:25 49.87927 9.07103 38216 ft 429 kts 298°
2026-04-21 20:25 49.90593 8.98810 38192 ft 429 kts 298°
2026-04-21 20:26 49.91920 8.94668 37717 ft 429 kts 298°
2026-04-21 20:26 49.93249 8.90518 37152 ft 430 kts 298°
2026-04-21 20:26 49.94582 8.86352 36554 ft 431 kts 298°
2026-04-21 20:26 49.95913 8.82177 35939 ft 432 kts 298°
2026-04-21 20:27 49.97243 8.77994 35387 ft 432 kts 298°
2026-04-21 20:27 49.98549 8.73880 34961 ft 428 kts 298°
2026-04-21 20:27 49.99862 8.69741 34538 ft 425 kts 298°
2026-04-21 20:27 50.01163 8.65629 34076 ft 422 kts 298°
2026-04-21 20:28 50.02449 8.61546 33562 ft 419 kts 298°
2026-04-21 20:28 50.03898 8.57649 33026 ft 413 kts 310°
2026-04-21 20:28 50.05898 8.54518 32515 ft 406 kts 324°
2026-04-21 20:28 50.08258 8.52159 31997 ft 401 kts 335°
2026-04-21 20:29 50.10807 8.50473 31487 ft 396 kts 343°
2026-04-21 20:29 50.13414 8.49067 30936 ft 397 kts 344°
2026-04-21 20:29 50.16018 8.47638 30414 ft 396 kts 344°
2026-04-21 20:29 50.18613 8.46212 29857 ft 395 kts 344°
2026-04-21 20:30 50.21194 8.44794 29349 ft 392 kts 345°
2026-04-21 20:30 50.23758 8.43394 28865 ft 389 kts 345°
2026-04-21 20:30 50.26304 8.42011 28395 ft 386 kts 345°
2026-04-21 20:30 50.28809 8.40550 27956 ft 385 kts 339°
2026-04-21 20:31 50.31141 8.38472 27542 ft 386 kts 331°
2026-04-21 20:31 50.33397 8.36217 27126 ft 383 kts 331°
2026-04-21 20:31 50.35640 8.33984 26679 ft 381 kts 332°
2026-04-21 20:31 50.37881 8.31753 26177 ft 381 kts 332°
2026-04-21 20:32 50.40108 8.29533 25758 ft 378 kts 332°
2026-04-21 20:32 50.42322 8.27321 25351 ft 376 kts 332°
2026-04-21 20:32 50.44523 8.25122 24937 ft 373 kts 332°
2026-04-21 20:32 50.46705 8.22942 24532 ft 371 kts 332°
2026-04-21 20:33 50.48843 8.20802 24130 ft 368 kts 332°
2026-04-21 20:33 50.50995 8.18642 23688 ft 366 kts 332°
2026-04-21 20:33 50.53128 8.16497 23199 ft 363 kts 332°
2026-04-21 20:33 50.55244 8.14365 22728 ft 360 kts 332°
2026-04-21 20:34 50.57342 8.12247 22263 ft 357 kts 332°
2026-04-21 20:34 50.59423 8.10145 21800 ft 354 kts 331°
2026-04-21 20:34 50.61488 8.08057 21310 ft 352 kts 332°
2026-04-21 20:34 50.63542 8.05975 20850 ft 350 kts 332°
2026-04-21 20:35 50.65577 8.03910 20405 ft 347 kts 332°
2026-04-21 20:35 50.67600 8.01856 19967 ft 345 kts 331°
2026-04-21 20:35 50.69607 7.99816 19524 ft 341 kts 331°
2026-04-21 20:35 50.71591 7.97797 18969 ft 338 kts 331°
2026-04-21 20:36 50.73560 7.95788 18398 ft 336 kts 330°
2026-04-21 20:36 50.75359 7.93437 17804 ft 337 kts 317°
2026-04-21 20:36 50.76809 7.90522 17217 ft 338 kts 306°
2026-04-21 20:36 50.78065 7.87398 16639 ft 335 kts 306°
2026-04-21 20:37 50.79317 7.84310 16085 ft 332 kts 306°
2026-04-21 20:37 50.80564 7.81254 15524 ft 329 kts 306°
2026-04-21 20:37 50.81798 7.78229 14983 ft 326 kts 306°
2026-04-21 20:37 50.83018 7.75232 14460 ft 323 kts 306°
2026-04-21 20:38 50.83821 7.73258 14117 ft 321 kts 306°
2026-04-21 20:38 50.85408 7.69347 13355 ft 317 kts 306°
2026-04-21 20:38 50.86209 7.67367 12976 ft 316 kts 306°
2026-04-21 20:38 50.87768 7.63507 12240 ft 313 kts 306°
2026-04-21 20:39 50.88935 7.60614 11694 ft 310 kts 305°
2026-04-21 20:39 50.90091 7.57738 11170 ft 308 kts 305°
2026-04-21 20:39 50.90866 7.55805 10824 ft 307 kts 305°
2026-04-21 20:39 50.92010 7.52957 10295 ft 306 kts 306°
2026-04-21 20:40 50.93141 7.50146 9916 ft 299 kts 306°
2026-04-21 20:40 50.94250 7.47393 9479 ft 294 kts 305°
2026-04-21 20:40 50.95341 7.44671 9019 ft 291 kts 305°
2026-04-21 20:40 50.96404 7.42012 8561 ft 287 kts 305°
2026-04-21 20:41 50.97469 7.39347 8109 ft 284 kts 304°
2026-04-21 20:41 50.98520 7.36710 7660 ft 281 kts 304°
2026-04-21 20:41 50.99560 7.34106 7226 ft 278 kts 304°
2026-04-21 20:41 51.00592 7.31521 6967 ft 276 kts 304°
2026-04-21 20:42 51.01620 7.28946 6724 ft 275 kts 304°
2026-04-21 20:42 51.02638 7.26388 6465 ft 274 kts 303°
2026-04-21 20:42 51.03652 7.23827 6196 ft 274 kts 303°
2026-04-21 20:42 51.04667 7.21264 5924 ft 274 kts 303°
2026-04-21 20:43 51.05684 7.18702 5673 ft 274 kts 304°
2026-04-21 20:43 51.06700 7.16134 5410 ft 275 kts 302°
2026-04-21 20:43 51.07468 7.13348 5153 ft 276 kts 287°
2026-04-21 20:43 51.07773 7.10337 4999 ft 277 kts 271°
2026-04-21 20:44 51.07689 7.07313 4964 ft 267 kts 265°
2026-04-21 20:44 51.07581 7.04429 4756 ft 256 kts 266°
2026-04-21 20:44 51.07482 7.01678 4626 ft 243 kts 266°
2026-04-21 20:44 51.07388 6.99070 4492 ft 230 kts 266°
2026-04-21 20:45 51.07296 6.96594 4311 ft 220 kts 264°
2026-04-21 20:45 51.06854 6.94393 4155 ft 203 kts 235°
2026-04-21 20:45 51.05933 6.92787 3851 ft 194 kts 211°
2026-04-21 20:45 51.04757 6.91903 3502 ft 187 kts 188°
2026-04-21 20:46 51.03496 6.91772 3147 ft 179 kts 166°
2026-04-21 20:46 51.02343 6.92345 3010 ft 172 kts 146°
2026-04-21 20:46 51.01392 6.93454 3010 ft 169 kts 132°
2026-04-21 20:46 51.00525 6.94723 3006 ft 169 kts 133°
2026-04-21 20:47 50.99656 6.95994 3006 ft 170 kts 133°
2026-04-21 20:47 50.98789 6.97261 3004 ft 170 kts 133°
2026-04-21 20:47 50.97919 6.98532 2890 ft 170 kts 133°
2026-04-21 20:47 50.97057 6.99790 2722 ft 165 kts 132°
2026-04-21 20:48 50.96233 7.00982 2533 ft 158 kts 132°
2026-04-21 20:48 50.95434 7.02148 2274 ft 152 kts 132°
2026-04-21 20:48 50.94706 7.03193 2106 ft 129 kts 131°
2026-04-21 20:48 50.94089 7.04095 1903 ft 116 kts 130°
2026-04-21 20:49 50.93495 7.04971 1766 ft 117 kts 130°
2026-04-21 20:49 50.92894 7.05845 1620 ft 118 kts 131°
2026-04-21 20:49 50.92294 7.06724 1448 ft 117 kts 130°
2026-04-21 20:49 50.91690 7.07604 1277 ft 121 kts 134°
2026-04-21 20:50 50.91055 7.08526 1121 ft 126 kts 134°
2026-04-21 20:50 50.90416 7.09453 948 ft 123 kts 135°
2026-04-21 20:50 50.89778 7.10385 774 ft 126 kts 135°
2026-04-21 20:50 50.89135 7.11317 589 ft 124 kts 135°
2026-04-21 20:51 50.88508 7.12231 396 ft 121 kts 134°
2026-04-21 20:51 50.87878 7.13143 252 ft 123 kts 135°
2026-04-21 20:51 50.87351 7.13919 242 ft 81 kts 137°
2026-04-21 20:51 50.87008 7.14412 255 ft 49 kts 138°
2026-04-21 20:52 50.86883 7.14517 260 ft 15 kts 220°
2026-04-21 20:52 50.86887 7.14342 258 ft 19 kts 280°
2026-04-21 20:52 50.86909 7.14123 255 ft 18 kts 279°
2026-04-21 20:52 50.86943 7.13899 248 ft 25 kts 302°
2026-04-21 20:53 50.87090 7.13691 240 ft 32 kts 319°
2026-04-21 20:53 50.87257 7.13442 234 ft 28 kts 316°
2026-04-21 20:53 50.87378 7.13265 232 ft 23 kts 317°
2026-04-21 20:53 50.87506 7.13079 232 ft 27 kts 318°
2026-04-21 20:54 50.87647 7.12876 232 ft 25 kts 317°
2026-04-21 20:54 50.87762 7.12701 232 ft 18 kts 303°
2026-04-21 20:54 50.87715 7.12523 232 ft 21 kts 200°
2026-04-21 20:54 50.87566 7.12449 232 ft 23 kts 199°
2026-04-21 20:55 50.87513 7.12408 235 ft 1 kts 279°
2026-04-21 20:55 50.87535 7.12375 232 ft 8 kts 310°
2026-04-21 20:55 50.87562 7.12299 234 ft 9 kts 298°
2026-04-21 20:55 50.87594 7.12231 232 ft 6 kts 343°
2026-04-21 20:56 50.87632 7.12280 232 ft 7 kts 51°
2026-04-21 20:56 50.87642 7.12301 232 ft 0 kts 51°